When you browse on this site, cookies collect data to enhance your experience and personalize the content and advertising you see.
Visit our Privacy Policy to learn more. By continuing to use the site, you agree to this use of cookies and data.
  • In Portugal
  • List of Countries
  • For 7 days
  • Water Temperature
  • Weather Map
  • Weather Widgets
  • user-avatar
    Login

    Hourly Weather Vershina Toi

    Today, 3 June, Wednesday

    Time Temperature Precipitation Wind Pressure Humidity
    00:00 +9°C° 0 mm 2 mps 675 mmHg 93%
    01:00 +8°C° 0 mm 2 mps 675 mmHg 94%
    02:00 +8°C° 0 mm 2 mps 675 mmHg 96%
    03:00 +8°C° 0 mm 2 mps 675 mmHg 97%
    04:00 +9°C° 0 mm 3 mps 675 mmHg 94%
    05:00 +8°C° 0 mm 4 mps 675 mmHg 91%
    06:00 +9°C° 0 mm 5 mps 675 mmHg 90%
    07:00 +10°C° 0.1 mm 6 mps 675 mmHg 84%
    08:00 +11°C° 0.1 mm 7 mps 675 mmHg 77%
    09:00 +11°C° 0.1 mm 7 mps 676 mmHg 70%
    10:00 +11°C° 0.1 mm 7 mps 676 mmHg 68%
    11:00 +11°C° 0.1 mm 7 mps 676 mmHg 65%
    12:00 +11°C° 0.1 mm 7 mps 677 mmHg 62%
    13:00 +11°C° 0.1 mm 7 mps 677 mmHg 61%
    14:00 +11°C° 0.1 mm 6 mps 678 mmHg 60%
    15:00 +11°C° 0.1 mm 6 mps 678 mmHg 59%
    16:00 +10°C° 0.1 mm 5 mps 678 mmHg 62%
    17:00 +11°C° 0.1 mm 4 mps 678 mmHg 65%
    18:00 +10°C° 0.1 mm 4 mps 678 mmHg 67%
    19:00 +8°C° 0 mm 3 mps 678 mmHg 75%
    20:00 +6°C° 0 mm 2 mps 678 mmHg 83%
    21:00 +6°C° 0 mm 1 mps 678 mmHg 91%
    22:00 +6°C° 0 mm 1 mps 678 mmHg 92%
    23:00 +5°C° 0 mm 1 mps 678 mmHg 92%

    Tomorrow, 4 June, Thursday

    Time Temperature Precipitation Wind Pressure Humidity
    00:00 +4°C° 0 mm 0 mps 677 mmHg 92%
    01:00 +4°C° 0 mm 0 mps 677 mmHg 92%
    02:00 +4°C° 0 mm 0 mps 677 mmHg 92%
    03:00 +3°C° 0 mm 0 mps 676 mmHg 92%
    04:00 +5°C° 0 mm 0 mps 676 mmHg 88%
    05:00 +6°C° 0 mm 0 mps 677 mmHg 83%
    06:00 +7°C° 0 mm 0 mps 677 mmHg 79%
    07:00 +10°C° 0.1 mm 1 mps 677 mmHg 70%
    08:00 +11°C° 0.1 mm 1 mps 677 mmHg 62%
    09:00 +12°C° 0.1 mm 2 mps 677 mmHg 53%
    10:00 +13°C° 0.1 mm 2 mps 677 mmHg 52%
    11:00 +12°C° 0.1 mm 3 mps 676 mmHg 51%
    12:00 +13°C° 0.1 mm 3 mps 676 mmHg 50%
    13:00 +13°C° 0.2 mm 3 mps 676 mmHg 51%
    14:00 +13°C° 0.2 mm 3 mps 676 mmHg 52%
    15:00 +13°C° 0.2 mm 3 mps 675 mmHg 53%
    16:00 +13°C° 0.1 mm 3 mps 675 mmHg 53%
    17:00 +12°C° 0.1 mm 3 mps 675 mmHg 53%
    18:00 +13°C° 0.1 mm 2 mps 675 mmHg 53%
    19:00 +10°C° 0 mm 2 mps 675 mmHg 63%
    20:00 +9°C° 0 mm 1 mps 674 mmHg 73%
    21:00 +7°C° 0 mm 1 mps 674 mmHg 82%
    22:00 +7°C° 0.2 mm 1 mps 674 mmHg 85%
    23:00 +7°C° 0.2 mm 1 mps 674 mmHg 87%

    Day after tomorrow, 5 June, Friday

    Time Temperature Precipitation Wind Pressure Humidity
    00:00 +7°C° 0.2 mm 1 mps 674 mmHg 90%
    01:00 +6°C° 0.1 mm 1 mps 673 mmHg 91%
    02:00 +6°C° 0.1 mm 1 mps 673 mmHg 92%
    03:00 +6°C° 0.1 mm 1 mps 672 mmHg 93%
    04:00 +6°C° 0.5 mm 1 mps 672 mmHg 93%
    05:00 +6°C° 0.5 mm 1 mps 672 mmHg 93%
    06:00 +6°C° 0.5 mm 1 mps 672 mmHg 94%
    07:00 +7°C° 0.3 mm 1 mps 673 mmHg 90%
    08:00 +7°C° 0.3 mm 1 mps 673 mmHg 87%
    09:00 +8°C° 0.3 mm 1 mps 673 mmHg 83%
    10:00 +7°C° 0.3 mm 2 mps 674 mmHg 83%
    11:00 +7°C° 0.3 mm 3 mps 674 mmHg 82%
    12:00 +7°C° 0.3 mm 4 mps 675 mmHg 82%
    13:00 +7°C° 0.4 mm 3 mps 675 mmHg 82%
    14:00 +7°C° 0.4 mm 3 mps 675 mmHg 82%
    15:00 +7°C° 0.4 mm 3 mps 675 mmHg 82%
    16:00 +7°C° 0.2 mm 3 mps 675 mmHg 78%
    17:00 +7°C° 0.2 mm 3 mps 675 mmHg 74%
    18:00 +8°C° 0.2 mm 3 mps 675 mmHg 70%
    19:00 +6°C° 0 mm 2 mps 675 mmHg 76%
    20:00 +5°C° 0 mm 2 mps 675 mmHg 82%
    21:00 +4°C° 0 mm 2 mps 675 mmHg 88%
    22:00 +4°C° 0.1 mm 2 mps 675 mmHg 90%
    23:00 +3°C° 0.1 mm 3 mps 676 mmHg 91%

    6 June, Saturday

    Time Temperature Precipitation Wind Pressure Humidity
    00:00 +3°C° 0.1 mm 4 mps 676 mmHg 93%
    01:00 +3°C° 0.6 mm 4 mps 676 mmHg 94%
    02:00 +3°C° 0.6 mm 4 mps 677 mmHg 95%
    03:00 +2°C° 0.6 mm 5 mps 677 mmHg 96%
    04:00 +3°C° 0.7 mm 4 mps 677 mmHg 96%
    05:00 +3°C° 0.7 mm 4 mps 678 mmHg 96%
    06:00 +3°C° 0.7 mm 4 mps 678 mmHg 96%
    07:00 +2°C° 0.2 mm 5 mps 678 mmHg 95%
    08:00 +2°C° 0.2 mm 5 mps 679 mmHg 94%
    09:00 +3°C° 0.2 mm 5 mps 679 mmHg 92%
    10:00 +5°C° 0.1 mm 5 mps 680 mmHg 88%
    11:00 +4°C° 0.1 mm 6 mps 680 mmHg 84%
    12:00 +5°C° 0.1 mm 6 mps 680 mmHg 80%
    13:00 +5°C° 0.2 mm 6 mps 680 mmHg 82%
    14:00 +5°C° 0.2 mm 6 mps 680 mmHg 84%
    15:00 +5°C° 0.2 mm 5 mps 680 mmHg 86%
    16:00 +5°C° 0.2 mm 5 mps 680 mmHg 88%
    17:00 +5°C° 0.2 mm 4 mps 681 mmHg 90%
    18:00 +5°C° 0.2 mm 3 mps 681 mmHg 93%
    19:00 +5°C° 0.1 mm 3 mps 681 mmHg 94%
    20:00 +6°C° 0.1 mm 2 mps 681 mmHg 96%
    21:00 +5°C° 0.1 mm 2 mps 681 mmHg 97%
    22:00 +5°C° 0.2 mm 2 mps 680 mmHg 97%
    23:00 +6°C° 0.2 mm 2 mps 680 mmHg 98%

    7 June, Sunday

    Time Temperature Precipitation Wind Pressure Humidity
    00:00 +6°C° 0.2 mm 2 mps 680 mmHg 98%
    01:00 +6°C° 0.3 mm 2 mps 680 mmHg 98%
    02:00 +6°C° 0.3 mm 2 mps 680 mmHg 98%
    03:00 +6°C° 0.3 mm 2 mps 680 mmHg 98%
    04:00 +6°C° 0.1 mm 2 mps 680 mmHg 97%
    05:00 +7°C° 0.1 mm 2 mps 680 mmHg 97%
    06:00 +7°C° 0.1 mm 2 mps 679 mmHg 96%
    07:00 +7°C° 0.5 mm 3 mps 679 mmHg 95%
    08:00 +8°C° 0.5 mm 3 mps 679 mmHg 94%
    09:00 +7°C° 0.5 mm 4 mps 679 mmHg 93%
    10:00 +7°C° 1 mm 4 mps 679 mmHg 90%
    11:00 +8°C° 1 mm 3 mps 679 mmHg 88%
    12:00 +9°C° 1 mm 3 mps 678 mmHg 85%
    13:00 +9°C° 0.2 mm 3 mps 678 mmHg 82%
    14:00 +9°C° 0.2 mm 3 mps 679 mmHg 78%
    15:00 +10°C° 0.2 mm 3 mps 679 mmHg 75%
    16:00 +9°C° 0.2 mm 3 mps 679 mmHg 76%
    17:00 +9°C° 0.2 mm 3 mps 679 mmHg 76%
    18:00 +9°C° 0.2 mm 3 mps 679 mmHg 77%
    19:00 +8°C° 0 mm 2 mps 679 mmHg 84%
    20:00 +6°C° 0 mm 2 mps 679 mmHg 90%
    21:00 +6°C° 0 mm 1 mps 679 mmHg 96%
    22:00 +5°C° 0 mm 1 mps 679 mmHg 96%
    23:00 +4°C° 0 mm 1 mps 679 mmHg 97%

    8 June, Monday

    Time Temperature Precipitation Wind Pressure Humidity
    00:00 +4°C° 0 mm 1 mps 679 mmHg 97%
    01:00 +4°C° 0 mm 1 mps 679 mmHg 97%
    02:00 +4°C° 0 mm 1 mps 679 mmHg 97%
    03:00 +3°C° 0 mm 1 mps 679 mmHg 97%
    04:00 +4°C° 0 mm 1 mps 680 mmHg 96%
    05:00 +5°C° 0 mm 1 mps 680 mmHg 94%
    06:00 +5°C° 0 mm 2 mps 680 mmHg 92%
    07:00 +6°C° 0.3 mm 2 mps 680 mmHg 88%
    08:00 +7°C° 0.3 mm 3 mps 680 mmHg 85%
    09:00 +7°C° 0.3 mm 3 mps 680 mmHg 81%
    10:00 +8°C° 0.1 mm 4 mps 681 mmHg 69%
    11:00 +10°C° 0.1 mm 4 mps 681 mmHg 57%
    12:00 +12°C° 0.1 mm 5 mps 681 mmHg 46%
    13:00 +12°C° 0 mm 5 mps 681 mmHg 45%
    14:00 +12°C° 0 mm 5 mps 681 mmHg 45%
    15:00 +13°C° 0 mm 5 mps 681 mmHg 44%
    16:00 +12°C° 0 mm 4 mps 681 mmHg 46%
    17:00 +12°C° 0 mm 4 mps 681 mmHg 49%
    18:00 +11°C° 0 mm 3 mps 681 mmHg 51%
    19:00 +9°C° 0 mm 3 mps 680 mmHg 62%
    20:00 +7°C° 0 mm 2 mps 680 mmHg 73%
    21:00 +5°C° 0 mm 1 mps 680 mmHg 84%
    22:00 +5°C° 0 mm 1 mps 680 mmHg 86%
    23:00 +4°C° 0 mm 1 mps 680 mmHg 88%
    Show more